| time (UTC) | temp F | wind direction | speed MPH | gust MPH | rain 1hr in | rain 24hr in | rain mn in | humidity % | barometer mb |
| 20260505023052 | 58 | 0 | 0.0 | 0.0 | 0.00 | 0.00 | 0.00 | 60 | 1015.2 |
| 20260505021549 | 59 | 0 | 0.0 | 0.0 | 0.00 | 0.00 | 0.00 | 58 | 1015.0 |
| 20260505020045 | 60 | 0 | 0.0 | 0.0 | 0.00 | 0.00 | 0.00 | 54 | 1014.9 |
| 20260505014601 | 62 | 0 | 0.0 | 0.0 | 0.00 | 0.00 | 0.00 | 50 | 1014.8 |
| 20260505013044 | 63 | 0 | 0.0 | 1.0 | 0.00 | 0.00 | 0.00 | 48 | 1014.6 |
| 20260505011541 | 62 | 0 | 0.0 | 1.0 | 0.00 | 0.00 | 0.00 | 52 | 1014.3 |
| 20260505010049 | 63 | 0 | 0.0 | 1.0 | 0.00 | 0.00 | 0.00 | 49 | 1014.2 |
| 20260505004549 | 64 | 0 | 0.0 | 0.0 | 0.00 | 0.00 | 0.00 | 47 | 1014.1 |
| 20260505003045 | 67 | 0 | 0.0 | 0.0 | 0.00 | 0.00 | 0.00 | 43 | 1013.9 |
| 20260505001602 | 69 | 0 | 0.0 | 0.0 | 0.00 | 0.00 | 0.00 | 39 | 1013.8 |
| 20260505000115 | 72 | 0 | 0.0 | 0.0 | 0.00 | 0.00 | 0.00 | 35 | 1013.8 |
| 20260504234606 | 74 | 204 | 0.0 | 4.0 | 0.00 | 0.00 | 0.00 | 31 | 1013.5 |
| 20260504233040 | 75 | 162 | 0.0 | 3.0 | 0.00 | 0.00 | 0.00 | 29 | 1013.3 |
| 20260504231546 | 76 | 199 | 3.0 | 9.0 | 0.00 | 0.00 | 0.00 | 28 | 1013.3 |
| 20260504230047 | 76 | 146 | 2.0 | 8.0 | 0.00 | 0.00 | 0.00 | 27 | 1013.1 |
| 20260504224603 | 77 | 266 | 2.0 | 8.0 | 0.00 | 0.00 | 0.00 | 27 | 1013.1 |
| 20260504223044 | 78 | 227 | 3.0 | 8.0 | 0.00 | 0.00 | 0.00 | 24 | 1013.1 |
| 20260504221540 | 79 | 250 | 2.0 | 5.0 | 0.00 | 0.00 | 0.00 | 23 | 1013.2 |
| 20260504220050 | 79 | 247 | 2.0 | 7.0 | 0.00 | 0.00 | 0.00 | 23 | 1013.2 |
| 20260504214546 | 80 | 239 | 3.0 | 8.0 | 0.00 | 0.00 | 0.00 | 24 | 1013.2 |
| 20260504213101 | 79 | 148 | 3.0 | 6.0 | 0.00 | 0.00 | 0.00 | 25 | 1013.4 |
| 20260504211542 | 80 | 234 | 1.0 | 7.0 | 0.00 | 0.00 | 0.00 | 26 | 1013.3 |
| 20260504210041 | 80 | 186 | 2.0 | 8.0 | 0.00 | 0.00 | 0.00 | 26 | 1013.3 |
| 20260504204539 | 80 | 297 | 2.0 | 7.0 | 0.00 | 0.00 | 0.00 | 29 | 1013.5 |
| 20260504203102 | 79 | 153 | 3.0 | 9.0 | 0.00 | 0.00 | 0.00 | 27 | 1013.8 |
| 20260504201543 | 78 | 248 | 3.0 | 8.0 | 0.00 | 0.00 | 0.00 | 28 | 1014.0 |
| 20260504200046 | 79 | 121 | 1.0 | 5.0 | 0.00 | 0.00 | 0.00 | 27 | 1014.1 |
| 20260504194556 | 78 | 238 | 6.0 | 12.0 | 0.00 | 0.00 | 0.00 | 25 | 1014.3 |
| 20260504193051 | 80 | 205 | 1.0 | 4.0 | 0.00 | 0.00 | 0.00 | 26 | 1014.3 |
| 20260504191547 | 79 | 209 | 2.0 | 8.0 | 0.00 | 0.00 | 0.00 | 27 | 1014.5 |
| 20260504190058 | 79 | 272 | 1.0 | 5.0 | 0.00 | 0.00 | 0.00 | 26 | 1014.7 |
| 20260504184558 | 79 | 236 | 1.0 | 7.0 | 0.00 | 0.00 | 0.00 | 25 | 1015.0 |
| 20260504183042 | 79 | 231 | 1.0 | 5.0 | 0.00 | 0.00 | 0.00 | 26 | 1015.2 |
| 20260504181542 | 78 | 228 | 3.0 | 8.0 | 0.00 | 0.00 | 0.00 | 27 | 1015.4 |
| 20260504180053 | 76 | 153 | 1.0 | 8.0 | 0.00 | 0.00 | 0.00 | 28 | 1015.4 |
| 20260504174551 | 76 | 76 | 0.0 | 6.0 | 0.00 | 0.00 | 0.00 | 28 | 1015.3 |
| 20260504173049 | 76 | 260 | 1.0 | 8.0 | 0.00 | 0.00 | 0.00 | 28 | 1015.6 |
| 20260504171551 | 75 | 173 | 3.0 | 7.0 | 0.00 | 0.00 | 0.00 | 30 | 1015.8 |
| 20260504081541 | 41 | 0 | 0.0 | 0.0 | 0.00 | 0.00 | 0.00 | 92 | 1016.5 |
| 20260504044556 | 44 | 0 | 0.0 | 0.0 | 0.00 | 0.00 | 0.00 | 85 | 1016.8 |
| 20260504043044 | 44 | 0 | 0.0 | 0.0 | 0.00 | 0.00 | 0.00 | 85 | 1016.8 |
| 20260504041540 | 45 | 0 | 0.0 | 0.0 | 0.00 | 0.00 | 0.00 | 83 | 1017.0 |
| 20260504040050 | 45 | 0 | 0.0 | 0.0 | 0.00 | 0.00 | 0.00 | 82 | 1017.1 |
| 20260504034552 | 45 | 0 | 0.0 | 0.0 | 0.00 | 0.00 | 0.00 | 82 | 1017.1 |
| 20260504033054 | 45 | 0 | 0.0 | 0.0 | 0.00 | 0.00 | 0.00 | 80 | 1017.1 |
| 20260504031543 | 46 | 0 | 0.0 | 0.0 | 0.00 | 0.00 | 0.00 | 79 | 1017.2 |
| 20260504030041 | 46 | 0 | 0.0 | 0.0 | 0.00 | 0.00 | 0.00 | 79 | 1017.1 |
| 20260504024546 | 47 | 0 | 0.0 | 0.0 | 0.00 | 0.00 | 0.00 | 77 | 1017.0 |